Location: Lancaster
(54.0470°N, 2.8020°W)
Time: 06:28:20
(UTC+01:00)

COSMOS 2428 - Visible Passes

Search period start: 29 August 2016 00:00
Search period end: 08 September 2016 00:00
Orbit: 844 x 859 km, 70.9° (Epoch: 28 August)

Date Brightness Start Highest point End Pass type
(mag) Time Alt. Az. Time Alt. Az. Time Alt. Az.
29 Aug 2.8 00:24:57 59° ESE 00:24:57 59° ESE 00:30:23 10° NE visible
29 Aug 3.8 02:06:57 26° W 02:09:22 37° NW 02:14:41 10° NNE visible
29 Aug 5.1 03:51:42 10° WNW 03:55:21 17° NNW 03:59:01 10° NNE visible
29 Aug 4.8 22:30:51 11° E 22:30:51 11° E 22:31:32 10° ENE visible
30 Aug 2.8 00:12:51 59° ESE 00:12:51 59° ESE 00:18:15 10° NE visible
30 Aug 3.9 01:54:51 26° W 01:57:13 37° NW 02:02:33 10° NNE visible
30 Aug 5.1 03:39:34 10° WNW 03:43:12 17° NNW 03:46:52 10° NNE visible
30 Aug 5.2 05:26:33 10° NNW 05:29:55 16° N 05:33:16 10° NE visible
30 Aug 4.7 22:18:43 11° E 22:18:43 11° E 22:19:24 10° ENE visible
31 Aug 2.8 00:00:42 59° ESE 00:00:42 59° ESE 00:06:06 10° NE visible
31 Aug 3.9 01:42:42 26° W 01:45:05 37° NW 01:50:24 10° NNE visible
31 Aug 5.1 03:27:25 10° WNW 03:31:04 17° NNW 03:34:44 10° NNE visible
31 Aug 5.2 05:14:25 10° NNW 05:17:46 16° N 05:21:08 10° NE visible
31 Aug 4.7 22:06:32 11° E 22:06:32 11° E 22:07:16 10° ENE visible
31 Aug 2.7 23:48:31 59° ESE 23:48:31 59° ESE 23:53:58 10° NE visible
01 Sep 3.9 01:30:31 26° W 01:32:56 37° NW 01:38:16 10° NNE visible
01 Sep 5.1 03:15:16 10° WNW 03:18:55 17° NNW 03:22:36 10° NNE visible
01 Sep 5.2 05:02:16 10° NNW 05:05:38 16° N 05:09:00 10° NE visible
01 Sep 4.7 21:54:18 11° E 21:54:18 11° E 21:55:08 10° ENE visible
01 Sep 2.7 23:36:17 59° ESE 23:36:17 59° ESE 23:41:49 10° NE visible
02 Sep 3.9 01:18:15 25° W 01:20:47 37° NW 01:26:07 10° NNE visible
02 Sep 5.2 03:03:08 10° WNW 03:06:47 17° NNW 03:10:27 10° NNE visible
02 Sep 5.3 04:50:08 10° NNW 04:53:30 16° N 04:56:52 10° NE visible
02 Sep 4.6 21:42:00 11° E 21:42:00 11° E 21:43:00 10° ENE visible
02 Sep 2.7 23:23:59 59° ESE 23:24:03 60° ESE 23:29:41 10° NE visible
03 Sep 3.9 01:05:57 24° W 01:08:39 37° NW 01:13:58 10° NNE visible
03 Sep 5.2 02:50:59 10° WNW 02:54:38 17° NNW 02:58:18 10° NNE visible
03 Sep 5.3 04:37:59 10° NNW 04:41:21 16° N 04:44:43 10° NE visible
03 Sep 4.6 21:29:37 12° E 21:29:37 12° E 21:30:53 10° ENE visible
03 Sep 2.7 23:11:35 59° SE 23:11:55 60° ESE 23:17:33 10° NE visible
04 Sep 4.0 00:53:33 23° W 00:56:31 37° NW 01:01:50 10° NNE visible
04 Sep 5.2 02:38:51 10° WNW 02:42:30 17° NNW 02:46:10 10° NNE visible
04 Sep 5.3 04:25:51 10° NNW 04:29:13 16° N 04:32:35 10° NE visible
04 Sep 4.5 21:17:07 12° E 21:17:07 12° E 21:18:45 10° ENE visible
04 Sep 2.7 22:59:04 55° SSE 22:59:47 60° ESE 23:05:24 10° NE visible
05 Sep 4.0 00:41:02 20° W 00:44:22 37° NW 00:49:42 10° NNE visible
05 Sep 5.2 02:26:43 10° WNW 02:30:22 17° NNW 02:34:02 10° NNE visible
05 Sep 5.3 04:13:43 10° NNW 04:17:04 16° N 04:20:27 10° NE visible
05 Sep 4.4 21:04:27 12° E 21:04:32 12° E 21:06:37 10° ENE visible
05 Sep 2.7 22:46:24 48° SSE 22:47:37 60° ESE 22:53:16 10° NE visible
06 Sep 4.0 00:28:21 17° WSW 00:32:14 37° NW 00:37:33 10° NNE visible
06 Sep 5.3 02:14:35 10° WNW 02:18:13 17° NNW 02:21:53 10° NNE visible
06 Sep 5.4 04:01:33 10° NNW 04:04:56 16° N 04:08:19 10° NE visible
06 Sep 4.7 05:46:07 10° NNW 05:51:09 30° NE 05:56:11 10° E visible
06 Sep 4.4 20:51:31 12° ESE 20:52:24 12° E 20:54:29 10° ENE visible
06 Sep 2.7 22:33:26 38° S 22:35:29 60° ESE 22:41:07 10° NE visible
07 Sep 4.0 00:15:21 12° WSW 00:20:05 37° NW 00:25:25 10° NNE visible
07 Sep 5.3 02:02:26 10° WNW 02:06:05 17° NNW 02:09:45 10° NNE visible
07 Sep 5.4 03:49:25 10° NNW 03:52:48 16° N 03:56:11 10° NE visible
07 Sep 4.7 05:33:58 10° NNW 05:39:01 30° NE 05:44:03 10° E visible
07 Sep 4.4 20:38:10 10° ESE 20:40:15 12° E 20:42:21 10° ENE visible
07 Sep 2.7 22:19:53 23° S 22:23:21 60° ESE 22:28:59 10° NE visible
